Time,TemperatureF,DewpointF,PressureIn,WindDirection,WindDirectionDegrees,WindSpeedMPH,WindSpeedGustMPH,Humidity,HourlyPrecipIn,Conditions,Clouds,dailyrainin,SoftwareType,DateUTC
2013-12-07 00:10:00,-999.0,-99.9,30.09,SSW,211,7.0,12.0,-999,0.00,,,0.00,weatherlink.com 1.10,2013-12-07 05:10:00,
2013-12-07 00:25:00,-999.0,-99.9,30.09,SW,217,6.0,9.0,-999,0.00,,,0.00,weatherlink.com 1.10,2013-12-07 05:25:00,
2013-12-07 00:40:00,-999.0,-99.9,30.09,SW,219,8.0,10.0,-999,0.00,,,0.00,weatherlink.com 1.10,2013-12-07 05:40:00,
2013-12-07 00:55:00,-999.0,-99.9,30.08,SSW,212,8.0,9.0,-999,0.00,,,0.00,weatherlink.com 1.10,2013-12-07 05:55:00,
2013-12-07 01:10:00,-999.0,-99.9,30.08,SW,235,9.0,11.0,-999,0.00,,,0.00,weatherlink.com 1.10,2013-12-07 06:10:00,
2013-12-07 01:25:00,-999.0,-99.9,30.08,SW,236,7.0,10.0,-999,0.00,,,0.00,weatherlink.com 1.10,2013-12-07 06:25:00,
2013-12-07 01:40:00,-999.0,-99.9,30.08,SW,235,8.0,10.0,-999,0.00,,,0.00,weatherlink.com 1.10,2013-12-07 06:40:00,
2013-12-07 01:55:00,-999.0,-99.9,30.07,WSW,243,8.0,9.0,-999,0.00,,,0.00,weatherlink.com 1.10,2013-12-07 06:55:00,
2013-12-07 02:10:00,-999.0,-99.9,30.07,SW,221,8.0,10.0,-999,0.00,,,0.00,weatherlink.com 1.10,2013-12-07 07:10:00,
2013-12-07 02:25:00,-999.0,-99.9,30.07,SW,226,8.0,9.0,-999,0.00,,,0.00,weatherlink.com 1.10,2013-12-07 07:25:00,
2013-12-07 02:40:00,-999.0,-99.9,30.07,SSW,208,10.0,13.0,-999,0.00,,,0.00,weatherlink.com 1.10,2013-12-07 07:40:00,
2013-12-07 02:55:00,-999.0,-99.9,30.08,SW,217,8.0,11.0,-999,0.00,,,0.00,weatherlink.com 1.10,2013-12-07 07:55:00,
2013-12-07 03:10:00,-999.0,-99.9,30.08,WSW,239,11.0,11.0,-999,0.00,,,0.00,weatherlink.com 1.10,2013-12-07 08:10:00,
2013-12-07 03:26:00,-999.0,-99.9,30.07,SW,217,10.0,13.0,-999,0.00,,,0.00,weatherlink.com 1.10,2013-12-07 08:26:00,
2013-12-07 03:41:00,-999.0,-99.9,30.08,WSW,238,7.0,12.0,-999,0.00,,,0.00,weatherlink.com 1.10,2013-12-07 08:41:00,
2013-12-07 03:56:00,-999.0,-99.9,30.08,WSW,239,10.0,15.0,-999,0.00,,,0.00,weatherlink.com 1.10,2013-12-07 08:56:00,
2013-12-07 04:11:00,-999.0,-99.9,30.08,WSW,248,13.0,16.0,-999,0.00,,,0.00,weatherlink.com 1.10,2013-12-07 09:11:00,
2013-12-07 04:26:00,-999.0,-99.9,30.08,SW,236,11.0,14.0,-999,0.00,,,0.00,weatherlink.com 1.10,2013-12-07 09:26:00,
2013-12-07 04:41:00,-999.0,-99.9,30.08,SW,220,11.0,12.0,-999,0.00,,,0.00,weatherlink.com 1.10,2013-12-07 09:41:00,
2013-12-07 04:56:00,-999.0,-99.9,30.08,SW,225,11.0,12.0,-999,0.00,,,0.00,weatherlink.com 1.10,2013-12-07 09:56:00,
2013-12-07 05:11:00,-999.0,-99.9,30.08,SSW,205,8.0,11.0,-999,0.00,,,0.00,weatherlink.com 1.10,2013-12-07 10:11:00,
2013-12-07 05:26:00,-999.0,-99.9,30.08,SW,221,11.0,12.0,-999,0.00,,,0.00,weatherlink.com 1.10,2013-12-07 10:26:00,
2013-12-07 05:41:00,-999.0,-99.9,30.08,SW,227,9.0,11.0,-999,0.00,,,0.00,weatherlink.com 1.10,2013-12-07 10:41:00,
2013-12-07 05:56:00,-999.0,-99.9,30.09,SW,226,9.0,9.0,-999,0.00,,,0.00,weatherlink.com 1.10,2013-12-07 10:56:00,
2013-12-07 06:11:00,-999.0,-99.9,30.10,WSW,242,9.0,10.0,-999,0.00,,,0.00,weatherlink.com 1.10,2013-12-07 11:11:00,
2013-12-07 06:26:00,-999.0,-99.9,30.10,WSW,248,7.0,9.0,-999,0.00,,,0.00,weatherlink.com 1.10,2013-12-07 11:26:00,
2013-12-07 06:41:00,-999.0,-99.9,30.11,SW,236,4.0,8.0,-999,0.00,,,0.00,weatherlink.com 1.10,2013-12-07 11:41:00,
2013-12-07 06:57:00,-999.0,-99.9,30.11,SW,235,3.0,6.0,-999,0.00,,,0.00,weatherlink.com 1.10,2013-12-07 11:57:00,
2013-12-07 07:12:00,-999.0,-99.9,30.11,SW,229,8.0,8.0,-999,0.00,,,0.00,weatherlink.com 1.10,2013-12-07 12:12:00,
2013-12-07 07:27:00,-999.0,-99.9,30.12,SW,229,4.0,5.0,-999,0.00,,,0.00,weatherlink.com 1.10,2013-12-07 12:27:00,
2013-12-07 07:42:00,-999.0,-99.9,30.13,SW,235,2.0,4.0,-999,0.00,,,0.00,weatherlink.com 1.10,2013-12-07 12:42:00,
2013-12-07 07:57:00,-999.0,-99.9,30.13,SW,236,4.0,4.0,-999,0.00,,,0.00,weatherlink.com 1.10,2013-12-07 12:57:00,
2013-12-07 08:12:00,-999.0,-99.9,30.14,WSW,241,2.0,5.0,-999,0.00,,,0.00,weatherlink.com 1.10,2013-12-07 13:12:00,
2013-12-07 08:27:00,-999.0,-99.9,30.14,West,259,0.0,4.0,-999,0.00,,,0.00,weatherlink.com 1.10,2013-12-07 13:27:00,
2013-12-07 08:42:00,-999.0,-99.9,30.15,NW,307,1.0,3.0,-999,0.00,,,0.00,weatherlink.com 1.10,2013-12-07 13:42:00,
2013-12-07 08:57:00,-999.0,-99.9,30.19,North,356,2.0,7.0,-999,0.00,,,0.00,weatherlink.com 1.10,2013-12-07 13:57:00,
2013-12-07 09:12:00,-999.0,-99.9,30.21,NNW,330,5.0,10.0,-999,0.00,,,0.00,weatherlink.com 1.10,2013-12-07 14:12:00,
2013-12-07 09:27:00,-999.0,-99.9,30.22,North,352,1.0,8.0,-999,0.00,,,0.00,weatherlink.com 1.10,2013-12-07 14:27:00,
2013-12-07 09:42:00,-999.0,-99.9,30.23,NNW,340,1.0,9.0,-999,0.00,,,0.00,weatherlink.com 1.10,2013-12-07 14:42:00,
2013-12-07 09:57:00,-999.0,-99.9,30.25,NW,307,1.0,6.0,-999,0.00,,,0.00,weatherlink.com 1.10,2013-12-07 14:57:00,
2013-12-07 10:13:00,-999.0,-99.9,30.27,NNW,339,4.0,7.0,-999,0.00,,,0.00,weatherlink.com 1.10,2013-12-07 15:13:00,
2013-12-07 10:28:00,-999.0,-99.9,30.27,NNE,31,2.0,6.0,-999,0.08,,,0.08,weatherlink.com 1.10,2013-12-07 15:28:00,
2013-12-07 10:43:00,-999.0,-99.9,30.27,WNW,284,0.0,7.0,-999,0.10,,,0.10,weatherlink.com 1.10,2013-12-07 15:43:00,
2013-12-07 10:58:00,-999.0,-99.9,30.28,NW,323,3.0,6.0,-999,0.11,,,0.11,weatherlink.com 1.10,2013-12-07 15:58:00,
2013-12-07 11:13:00,-999.0,-99.9,30.28,NW,309,3.0,5.0,-999,0.11,,,0.11,weatherlink.com 1.10,2013-12-07 16:13:00,
2013-12-07 11:28:00,-999.0,-99.9,30.28,North,11,0.0,4.0,-999,0.03,,,0.11,weatherlink.com 1.10,2013-12-07 16:28:00,
2013-12-07 11:43:00,-999.0,-99.9,30.28,NW,318,2.0,6.0,-999,0.01,,,0.11,weatherlink.com 1.10,2013-12-07 16:43:00,
2013-12-07 11:58:00,-999.0,-99.9,30.27,East,91,0.0,4.0,-999,0.00,,,0.11,weatherlink.com 1.10,2013-12-07 16:58:00,
2013-12-07 12:13:00,-999.0,-99.9,30.27,East,94,1.0,5.0,-999,0.00,,,0.11,weatherlink.com 1.10,2013-12-07 17:13:00,
2013-12-07 12:28:00,-999.0,-99.9,30.27,NNW,332,0.0,7.0,-999,0.00,,,0.11,weatherlink.com 1.10,2013-12-07 17:28:00,
2013-12-07 12:43:00,-999.0,-99.9,30.26,WNW,287,3.0,7.0,-999,0.00,,,0.11,weatherlink.com 1.10,2013-12-07 17:43:00,
2013-12-07 12:58:00,-999.0,-99.9,30.26,WNW,294,0.0,4.0,-999,0.00,,,0.11,weatherlink.com 1.10,2013-12-07 17:58:00,
2013-12-07 13:13:00,-999.0,-99.9,30.26,WNW,282,0.0,8.0,-999,0.00,,,0.11,weatherlink.com 1.10,2013-12-07 18:13:00,
2013-12-07 13:28:00,-999.0,-99.9,30.27,NNE,14,3.0,6.0,-999,0.00,,,0.11,weatherlink.com 1.10,2013-12-07 18:28:00,
2013-12-07 13:44:00,-999.0,-99.9,30.28,NW,318,1.0,5.0,-999,0.00,,,0.11,weatherlink.com 1.10,2013-12-07 18:44:00,
2013-12-07 13:59:00,-999.0,-99.9,30.27,WNW,302,3.0,8.0,-999,0.00,,,0.11,weatherlink.com 1.10,2013-12-07 18:59:00,
2013-12-07 14:14:00,-999.0,-99.9,30.28,NW,304,0.0,3.0,-999,0.01,,,0.12,weatherlink.com 1.10,2013-12-07 19:14:00,
2013-12-07 14:29:00,-999.0,-99.9,30.28,NNE,14,0.0,5.0,-999,0.01,,,0.12,weatherlink.com 1.10,2013-12-07 19:29:00,
2013-12-07 14:44:00,-999.0,-99.9,30.29,WNW,299,1.0,6.0,-999,0.01,,,0.12,weatherlink.com 1.10,2013-12-07 19:44:00,
2013-12-07 14:59:00,-999.0,-99.9,30.29,West,267,0.0,6.0,-999,0.01,,,0.12,weatherlink.com 1.10,2013-12-07 19:59:00,
2013-12-07 15:14:00,-999.0,-99.9,30.29,SW,231,2.0,6.0,-999,0.00,,,0.12,weatherlink.com 1.10,2013-12-07 20:14:00,
2013-12-07 15:29:00,-999.0,-99.9,30.30,North,356,2.0,5.0,-999,0.00,,,0.12,weatherlink.com 1.10,2013-12-07 20:29:00,
2013-12-07 15:44:00,-999.0,-99.9,30.31,NE,56,0.0,5.0,-999,0.00,,,0.12,weatherlink.com 1.10,2013-12-07 20:44:00,
2013-12-07 15:59:00,-999.0,-99.9,30.31,North,9,1.0,6.0,-999,0.00,,,0.12,weatherlink.com 1.10,2013-12-07 20:59:00,
2013-12-07 16:14:00,-999.0,-99.9,30.31,WSW,243,0.0,5.0,-999,0.00,,,0.12,weatherlink.com 1.10,2013-12-07 21:14:00,
2013-12-07 16:29:00,-999.0,-99.9,30.33,NW,315,4.0,8.0,-999,0.00,,,0.12,weatherlink.com 1.10,2013-12-07 21:29:00,
2013-12-07 16:44:00,-999.0,-99.9,30.33,NNW,330,1.0,4.0,-999,0.00,,,0.12,weatherlink.com 1.10,2013-12-07 21:44:00,
2013-12-07 17:00:00,-999.0,-99.9,30.33,NNE,21,0.0,6.0,-999,0.00,,,0.12,weatherlink.com 1.10,2013-12-07 22:00:00,
2013-12-07 17:15:00,-999.0,-99.9,30.34,SE,145,0.0,4.0,-999,0.00,,,0.12,weatherlink.com 1.10,2013-12-07 22:15:00,
2013-12-07 17:30:00,-999.0,-99.9,30.36,WNW,293,3.0,5.0,-999,0.00,,,0.12,weatherlink.com 1.10,2013-12-07 22:30:00,
2013-12-07 17:45:00,-999.0,-99.9,30.36,WNW,294,0.0,5.0,-999,0.00,,,0.12,weatherlink.com 1.10,2013-12-07 22:45:00,
2013-12-07 18:00:00,-999.0,-99.9,30.36,NNE,30,1.0,4.0,-999,0.00,,,0.12,weatherlink.com 1.10,2013-12-07 23:00:00,
2013-12-07 18:15:00,-999.0,-99.9,30.37,NNE,13,2.0,5.0,-999,0.00,,,0.12,weatherlink.com 1.10,2013-12-07 23:15:00,
2013-12-07 18:30:00,-999.0,-99.9,30.37,NW,314,0.0,6.0,-999,0.00,,,0.12,weatherlink.com 1.10,2013-12-07 23:30:00,
2013-12-07 18:45:00,-999.0,-99.9,30.37,WSW,239,0.0,7.0,-999,0.00,,,0.12,weatherlink.com 1.10,2013-12-07 23:45:00,
2013-12-07 19:00:00,-999.0,-99.9,30.39,SW,229,0.0,5.0,-999,0.00,,,0.12,weatherlink.com 1.10,2013-12-08 00:00:00,
2013-12-07 19:15:00,-999.0,-99.9,30.39,WNW,301,1.0,8.0,-999,0.00,,,0.12,weatherlink.com 1.10,2013-12-08 00:15:00,
2013-12-07 19:30:00,-999.0,-99.9,30.39,WSW,245,2.0,4.0,-999,0.04,,,0.16,weatherlink.com 1.10,2013-12-08 00:30:00,
2013-12-07 19:45:00,-999.0,-99.9,30.40,ENE,58,2.0,5.0,-999,0.04,,,0.16,weatherlink.com 1.10,2013-12-08 00:45:00,
2013-12-07 20:00:00,-999.0,-99.9,30.41,NNW,332,1.0,6.0,-999,0.04,,,0.16,weatherlink.com 1.10,2013-12-08 01:00:00,
2013-12-07 20:16:00,-999.0,-99.9,30.41,West,280,1.0,8.0,-999,0.05,,,0.17,weatherlink.com 1.10,2013-12-08 01:16:00,
2013-12-07 20:31:00,-999.0,-99.9,30.41,NW,312,1.0,7.0,-999,0.01,,,0.17,weatherlink.com 1.10,2013-12-08 01:31:00,
2013-12-07 20:46:00,-999.0,-99.9,30.42,WNW,285,2.0,5.0,-999,0.01,,,0.17,weatherlink.com 1.10,2013-12-08 01:46:00,
2013-12-07 21:01:00,-999.0,-99.9,30.42,WNW,300,0.0,1.0,-999,0.01,,,0.17,weatherlink.com 1.10,2013-12-08 02:01:00,
2013-12-07 21:16:00,-999.0,-99.9,30.42,NW,309,2.0,5.0,-999,0.00,,,0.17,weatherlink.com 1.10,2013-12-08 02:16:00,
2013-12-07 21:31:00,-999.0,-99.9,30.41,NW,322,1.0,5.0,-999,0.00,,,0.17,weatherlink.com 1.10,2013-12-08 02:31:00,
2013-12-07 21:46:00,-999.0,-99.9,30.41,WNW,296,0.0,4.0,-999,0.00,,,0.17,weatherlink.com 1.10,2013-12-08 02:46:00,
2013-12-07 22:01:00,-999.0,-99.9,30.42,WNW,285,1.0,4.0,-999,0.00,,,0.17,weatherlink.com 1.10,2013-12-08 03:01:00,
2013-12-07 22:16:00,-999.0,-99.9,30.42,ESE,110,0.0,6.0,-999,0.00,,,0.17,weatherlink.com 1.10,2013-12-08 03:16:00,
2013-12-07 22:31:00,-999.0,-99.9,30.42,NNW,327,0.0,6.0,-999,0.00,,,0.17,weatherlink.com 1.10,2013-12-08 03:31:00,
2013-12-07 22:46:00,-999.0,-99.9,30.43,NNW,330,0.0,3.0,-999,0.00,,,0.17,weatherlink.com 1.10,2013-12-08 03:46:00,
2013-12-07 23:01:00,-999.0,-99.9,30.43,North,1,0.0,4.0,-999,0.00,,,0.17,weatherlink.com 1.10,2013-12-08 04:01:00,
2013-12-07 23:16:00,-999.0,-99.9,30.42,SSE,153,1.0,4.0,-999,0.00,,,0.17,weatherlink.com 1.10,2013-12-08 04:16:00,
2013-12-07 23:31:00,-999.0,-99.9,30.42,WNW,291,1.0,5.0,-999,0.00,,,0.17,weatherlink.com 1.10,2013-12-08 04:31:00,
2013-12-07 23:47:00,-999.0,-99.9,30.41,North,8,3.0,8.0,-999,0.00,,,0.17,weatherlink.com 1.10,2013-12-08 04:47:00,